| time (UTC) | temp F | wind direction | speed knots | gust knots | rain 1hr in | rain 24hr in | rain mn in | humidity % | barometer mb |
| 20260510064552 | 56 | 134 | 0.0 | 0.0 | 0.00 | 0.00 | 0.00 | 72 | 1010.8 |
| 20260510064007 | 55 | 56 | 0.0 | 0.0 | 0.00 | 0.00 | 0.00 | 71 | 1010.8 |
| 20260510063510 | 56 | 56 | 0.0 | 0.9 | 0.00 | 0.00 | 0.00 | 71 | 1010.7 |
| 20260510063038 | 56 | 61 | 0.0 | 0.9 | 0.00 | 0.00 | 0.00 | 71 | 1010.7 |
| 20260510062506 | 56 | 61 | 0.0 | 0.9 | 0.00 | 0.00 | 0.00 | 70 | 1010.6 |
| 20260510062007 | 57 | 74 | 0.0 | 0.9 | 0.00 | 0.00 | 0.00 | 69 | 1010.7 |
| 20260510061532 | 58 | 74 | 0.0 | 0.9 | 0.00 | 0.00 | 0.00 | 68 | 1010.7 |
| 20260510061007 | 58 | 172 | 0.0 | 0.0 | 0.00 | 0.00 | 0.00 | 65 | 1010.7 |
| 20260510060509 | 58 | 172 | 0.0 | 0.9 | 0.00 | 0.00 | 0.00 | 65 | 1010.7 |
| 20260510060038 | 59 | 172 | 0.0 | 2.6 | 0.00 | 0.00 | 0.00 | 64 | 1010.6 |
| 20260510055507 | 59 | 196 | 0.0 | 2.6 | 0.00 | 0.00 | 0.00 | 63 | 1010.6 |
| 20260510055007 | 59 | 234 | 0.0 | 2.6 | 0.00 | 0.00 | 0.00 | 62 | 1010.6 |
| 20260510054528 | 60 | 238 | 0.0 | 1.7 | 0.00 | 0.00 | 0.00 | 63 | 1010.5 |
| 20260510054008 | 60 | 252 | 0.9 | 2.6 | 0.00 | 0.00 | 0.00 | 63 | 1010.5 |
| 20260510053504 | 59 | 254 | 0.9 | 3.5 | 0.00 | 0.00 | 0.00 | 64 | 1010.5 |
| 20260510053005 | 59 | 226 | 1.7 | 3.5 | 0.00 | 0.00 | 0.00 | 65 | 1010.5 |
| 20260510052503 | 58 | 231 | 0.9 | 1.7 | 0.00 | 0.00 | 0.00 | 67 | 1010.5 |
| 20260510052005 | 58 | 208 | 0.0 | 0.9 | 0.00 | 0.00 | 0.00 | 66 | 1010.6 |
| 20260510051505 | 58 | 207 | 0.0 | 0.9 | 0.00 | 0.00 | 0.00 | 65 | 1010.6 |
| 20260510051004 | 58 | 143 | 0.0 | 2.6 | 0.00 | 0.00 | 0.00 | 66 | 1010.7 |
| 20260510050503 | 57 | 76 | 0.0 | 4.3 | 0.00 | 0.00 | 0.00 | 69 | 1010.6 |
| 20260510050006 | 56 | 76 | 0.0 | 4.3 | 0.00 | 0.00 | 0.00 | 73 | 1010.6 |
| 20260510045506 | 54 | 257 | 0.0 | 0.9 | 0.00 | 0.00 | 0.00 | 79 | 1010.6 |
| 20260510045005 | 54 | 254 | 0.0 | 1.7 | 0.00 | 0.00 | 0.00 | 79 | 1010.7 |
| 20260510044508 | 54 | 236 | 0.9 | 1.7 | 0.00 | 0.00 | 0.00 | 81 | 1010.8 |
| 20260510044004 | 55 | 230 | 0.9 | 1.7 | 0.00 | 0.00 | 0.00 | 79 | 1010.8 |
| 20260510043504 | 54 | 248 | 0.0 | 0.0 | 0.00 | 0.00 | 0.00 | 79 | 1010.8 |
| 20260510043005 | 54 | 248 | 0.0 | 0.0 | 0.00 | 0.00 | 0.00 | 81 | 1010.8 |
| 20260510042503 | 54 | 248 | 0.0 | 0.0 | 0.00 | 0.00 | 0.00 | 82 | 1010.8 |
| 20260510042005 | 54 | 251 | 0.0 | 0.0 | 0.00 | 0.00 | 0.00 | 83 | 1010.9 |
| 20260510041504 | 55 | 250 | 0.0 | 0.0 | 0.00 | 0.00 | 0.00 | 82 | 1010.8 |
| 20260510041005 | 55 | 269 | 0.0 | 0.9 | 0.00 | 0.00 | 0.00 | 82 | 1010.8 |
| 20260510040504 | 55 | 269 | 0.0 | 0.9 | 0.00 | 0.00 | 0.00 | 82 | 1010.8 |
| 20260510040006 | 55 | 250 | 0.0 | 0.9 | 0.00 | 0.00 | 0.00 | 82 | 1010.8 |
| 20260510035503 | 56 | 253 | 0.0 | 1.7 | 0.00 | 0.00 | 0.00 | 81 | 1010.8 |
| 20260510035003 | 57 | 257 | 0.9 | 1.7 | 0.00 | 0.00 | 0.00 | 79 | 1010.8 |
| 20260510034507 | 58 | 264 | 0.9 | 1.7 | 0.00 | 0.00 | 0.00 | 77 | 1010.9 |
| 20260510034005 | 58 | 265 | 0.9 | 1.7 | 0.00 | 0.00 | 0.00 | 77 | 1010.9 |
| 20260510033502 | 58 | 260 | 0.9 | 2.6 | 0.00 | 0.00 | 0.00 | 75 | 1010.8 |
| 20260510033008 | 58 | 265 | 0.9 | 2.6 | 0.00 | 0.00 | 0.00 | 76 | 1010.8 |
| 20260510032505 | 58 | 271 | 0.9 | 2.6 | 0.00 | 0.00 | 0.00 | 78 | 1010.8 |
| 20260510032004 | 56 | 269 | 0.9 | 1.7 | 0.00 | 0.00 | 0.00 | 81 | 1010.7 |
| 20260510031506 | 56 | 264 | 0.9 | 1.7 | 0.00 | 0.00 | 0.00 | 82 | 1010.7 |
| 20260510031003 | 56 | 264 | 0.9 | 1.7 | 0.00 | 0.00 | 0.00 | 82 | 1010.7 |
| 20260510030504 | 57 | 240 | 0.0 | 2.6 | 0.00 | 0.00 | 0.00 | 81 | 1010.6 |
| 20260510030009 | 58 | 248 | 0.0 | 2.6 | 0.00 | 0.00 | 0.00 | 79 | 1010.6 |
| 20260510025504 | 57 | 264 | 0.9 | 2.6 | 0.00 | 0.00 | 0.00 | 80 | 1010.6 |
| 20260510025004 | 56 | 277 | 1.7 | 2.6 | 0.00 | 0.00 | 0.00 | 83 | 1010.6 |
| 20260510024504 | 56 | 269 | 1.7 | 2.6 | 0.00 | 0.00 | 0.00 | 84 | 1010.6 |
| 20260510024003 | 56 | 267 | 0.9 | 1.7 | 0.00 | 0.00 | 0.00 | 83 | 1010.4 |
| 20260510023503 | 56 | 269 | 0.0 | 1.7 | 0.00 | 0.00 | 0.00 | 83 | 1010.3 |
| 20260510023007 | 56 | 269 | 0.0 | 1.7 | 0.00 | 0.00 | 0.00 | 83 | 1010.2 |
| 20260510022503 | 56 | 256 | 0.0 | 1.7 | 0.00 | 0.00 | 0.00 | 82 | 1010.1 |
| 20260510022002 | 57 | 246 | 0.0 | 0.9 | 0.00 | 0.00 | 0.00 | 80 | 1010.0 |
| 20260510021509 | 58 | 269 | 0.0 | 1.7 | 0.00 | 0.00 | 0.00 | 80 | 1009.9 |
| 20260510021005 | 58 | 269 | 0.0 | 1.7 | 0.00 | 0.00 | 0.00 | 81 | 1010.1 |
| 20260510020501 | 58 | 266 | 0.9 | 1.7 | 0.00 | 0.00 | 0.00 | 81 | 1010.0 |
| 20260510020006 | 58 | 259 | 0.0 | 0.0 | 0.00 | 0.00 | 0.00 | 80 | 1009.9 |
| 20260510015503 | 58 | 269 | 0.0 | 1.7 | 0.00 | 0.00 | 0.00 | 80 | 1009.8 |
| 20260510015003 | 58 | 269 | 0.9 | 1.7 | 0.00 | 0.00 | 0.00 | 80 | 1009.8 |
| 20260510014506 | 59 | 264 | 0.0 | 0.9 | 0.00 | 0.00 | 0.00 | 79 | 1009.6 |
| 20260510014003 | 60 | 264 | 0.0 | 0.9 | 0.00 | 0.00 | 0.00 | 77 | 1009.6 |
| 20260510013503 | 61 | 264 | 0.0 | 0.9 | 0.00 | 0.00 | 0.00 | 75 | 1009.5 |
| 20260510013006 | 62 | 271 | 0.0 | 1.7 | 0.00 | 0.00 | 0.00 | 72 | 1009.4 |
| 20260510012502 | 63 | 271 | 0.9 | 2.6 | 0.00 | 0.00 | 0.00 | 70 | 1009.5 |
| 20260510012003 | 64 | 264 | 0.9 | 2.6 | 0.00 | 0.00 | 0.00 | 69 | 1009.4 |
| 20260510011508 | 63 | 276 | 0.9 | 1.7 | 0.00 | 0.00 | 0.00 | 70 | 1009.3 |
| 20260510011002 | 63 | 278 | 0.9 | 1.7 | 0.00 | 0.00 | 0.00 | 72 | 1009.3 |
| 20260510010502 | 62 | 273 | 0.9 | 1.7 | 0.00 | 0.00 | 0.00 | 73 | 1009.3 |
| 20260510010007 | 61 | 269 | 0.0 | 0.9 | 0.00 | 0.00 | 0.00 | 74 | 1009.2 |
| 20260510005503 | 61 | 269 | 0.9 | 0.9 | 0.00 | 0.00 | 0.00 | 76 | 1009.2 |
| 20260510005001 | 61 | 267 | 0.0 | 0.9 | 0.00 | 0.00 | 0.00 | 74 | 1009.0 |
| 20260510004507 | 62 | 278 | 0.0 | 0.0 | 0.00 | 0.00 | 0.00 | 74 | 1008.9 |
| 20260510004006 | 63 | 278 | 0.0 | 0.0 | 0.00 | 0.00 | 0.00 | 73 | 1008.8 |
| 20260510003505 | 63 | 278 | 0.0 | 0.0 | 0.00 | 0.00 | 0.00 | 72 | 1008.8 |
| 20260510003008 | 64 | 278 | 0.0 | 0.0 | 0.00 | 0.00 | 0.00 | 71 | 1008.6 |
| 20260510002503 | 64 | 278 | 0.0 | 0.0 | 0.00 | 0.00 | 0.00 | 71 | 1008.6 |
| 20260510002006 | 65 | 278 | 0.0 | 0.0 | 0.00 | 0.00 | 0.00 | 69 | 1008.6 |
| 20260510001508 | 65 | 278 | 0.0 | 0.0 | 0.00 | 0.00 | 0.00 | 68 | 1008.6 |
| 20260510001003 | 66 | 278 | 0.0 | 0.0 | 0.00 | 0.00 | 0.00 | 66 | 1008.5 |
| 20260510000504 | 67 | 278 | 0.0 | 0.0 | 0.00 | 0.00 | 0.00 | 65 | 1008.4 |
| 20260510000007 | 67 | 278 | 0.0 | 0.0 | 0.00 | 0.00 | 0.00 | 63 | 1008.2 |
| 20260509235505 | 68 | 278 | 0.0 | 0.0 | 0.00 | 0.00 | 0.00 | 62 | 1008.2 |
| 20260509235003 | 69 | 278 | 0.0 | 0.0 | 0.00 | 0.00 | 0.00 | 61 | 1008.2 |
| 20260509234518 | 69 | 278 | 0.0 | 0.0 | 0.00 | 0.00 | 0.00 | 59 | 1008.2 |
| 20260509234001 | 70 | 278 | 0.0 | 0.9 | 0.00 | 0.00 | 0.00 | 57 | 1008.2 |
| 20260509233503 | 70 | 278 | 0.0 | 0.9 | 0.00 | 0.00 | 0.00 | 56 | 1008.2 |
| 20260509233019 | 71 | 278 | 0.0 | 2.6 | 0.00 | 0.00 | 0.00 | 55 | 1008.2 |
| 20260509232503 | 71 | 278 | 0.9 | 2.6 | 0.00 | 0.00 | 0.00 | 54 | 1008.2 |
| 20260509232002 | 71 | 264 | 1.7 | 2.6 | 0.00 | 0.00 | 0.00 | 54 | 1008.1 |
| 20260509231513 | 71 | 280 | 0.9 | 2.6 | 0.00 | 0.00 | 0.00 | 53 | 1008.1 |
| 20260509231003 | 71 | 270 | 0.0 | 2.6 | 0.00 | 0.00 | 0.00 | 53 | 1008.1 |
| 20260509230503 | 72 | 229 | 1.7 | 4.3 | 0.00 | 0.00 | 0.00 | 53 | 1008.1 |
| 20260509230012 | 72 | 276 | 1.7 | 4.3 | 0.00 | 0.00 | 0.00 | 53 | 1008.0 |
| 20260509225505 | 72 | 231 | 1.7 | 6.1 | 0.00 | 0.00 | 0.00 | 53 | 1008.1 |
| 20260509225004 | 72 | 251 | 2.6 | 7.0 | 0.00 | 0.00 | 0.00 | 52 | 1008.0 |
| 20260509224515 | 72 | 269 | 5.2 | 7.0 | 0.00 | 0.00 | 0.00 | 51 | 1008.0 |
| 20260509224004 | 72 | 254 | 2.6 | 5.2 | 0.00 | 0.00 | 0.00 | 52 | 1008.0 |
| 20260509223505 | 73 | 227 | 2.6 | 5.2 | 0.00 | 0.00 | 0.00 | 51 | 1008.1 |
| 20260509223013 | 73 | 231 | 2.6 | 7.0 | 0.00 | 0.00 | 0.00 | 50 | 1008.1 |
| 20260509222508 | 73 | 210 | 4.3 | 9.6 | 0.00 | 0.00 | 0.00 | 50 | 1008.1 |
| 20260509222004 | 73 | 245 | 5.2 | 9.6 | 0.00 | 0.00 | 0.00 | 50 | 1008.1 |
| 20260509221511 | 73 | 248 | 3.5 | 7.8 | 0.00 | 0.00 | 0.00 | 50 | 1008.2 |
| 20260509221002 | 73 | 269 | 3.5 | 6.1 | 0.00 | 0.00 | 0.00 | 50 | 1008.1 |
| 20260509220504 | 73 | 168 | 3.5 | 6.1 | 0.00 | 0.00 | 0.00 | 50 | 1008.1 |
| 20260509220017 | 73 | 257 | 2.6 | 8.7 | 0.00 | 0.00 | 0.00 | 51 | 1008.1 |
| 20260509215503 | 73 | 250 | 3.5 | 8.7 | 0.00 | 0.00 | 0.00 | 50 | 1008.1 |
| 20260509215003 | 73 | 220 | 3.5 | 7.8 | 0.00 | 0.00 | 0.00 | 50 | 1008.1 |
| 20260509214514 | 73 | 246 | 3.5 | 7.8 | 0.00 | 0.00 | 0.00 | 50 | 1008.0 |
| 20260509214004 | 73 | 252 | 2.6 | 8.7 | 0.00 | 0.00 | 0.00 | 50 | 1008.0 |
| 20260509213508 | 74 | 231 | 3.5 | 8.7 | 0.00 | 0.00 | 0.00 | 48 | 1007.9 |
| 20260509213016 | 74 | 266 | 4.3 | 7.8 | 0.00 | 0.00 | 0.00 | 49 | 1007.9 |
| 20260509212504 | 74 | 243 | 4.3 | 7.0 | 0.00 | 0.00 | 0.00 | 48 | 1007.9 |
| 20260509212011 | 74 | 236 | 3.5 | 7.0 | 0.00 | 0.00 | 0.00 | 48 | 1007.8 |
| 20260509211511 | 73 | 247 | 3.5 | 7.0 | 0.00 | 0.00 | 0.00 | 48 | 1007.8 |
| 20260509211004 | 72 | 264 | 3.5 | 5.2 | 0.00 | 0.00 | 0.00 | 50 | 1007.9 |
| 20260509210506 | 73 | 248 | 3.5 | 5.2 | 0.00 | 0.00 | 0.00 | 49 | 1007.9 |
| 20260509210020 | 73 | 260 | 3.5 | 6.1 | 0.00 | 0.00 | 0.00 | 49 | 1007.9 |
| 20260509205504 | 73 | 229 | 3.5 | 7.8 | 0.00 | 0.00 | 0.00 | 48 | 1007.8 |
| 20260509205005 | 74 | 277 | 3.5 | 10.4 | 0.00 | 0.00 | 0.00 | 47 | 1007.7 |
| 20260509204514 | 74 | 211 | 3.5 | 10.4 | 0.00 | 0.00 | 0.00 | 47 | 1007.6 |
| 20260509204009 | 74 | 132 | 2.6 | 8.7 | 0.00 | 0.00 | 0.00 | 46 | 1007.6 |
| 20260509203504 | 74 | 194 | 4.3 | 8.7 | 0.00 | 0.00 | 0.00 | 47 | 1007.4 |
| 20260509203008 | 73 | 259 | 3.5 | 8.7 | 0.00 | 0.00 | 0.00 | 45 | 1007.5 |
| 20260509202503 | 74 | 240 | 4.3 | 8.7 | 0.00 | 0.00 | 0.00 | 47 | 1007.4 |
| 20260509202003 | 73 | 214 | 5.2 | 11.3 | 0.00 | 0.00 | 0.00 | 44 | 1007.5 |
| 20260509201507 | 73 | 190 | 6.1 | 11.3 | 0.00 | 0.00 | 0.00 | 44 | 1007.5 |
| 20260509201005 | 73 | 252 | 4.3 | 7.8 | 0.00 | 0.00 | 0.00 | 44 | 1007.5 |
| 20260509200503 | 74 | 264 | 4.3 | 10.4 | 0.00 | 0.00 | 0.00 | 44 | 1007.5 |
| 20260509200008 | 74 | 276 | 4.3 | 10.4 | 0.00 | 0.00 | 0.00 | 45 | 1007.6 |
| 20260509195503 | 74 | 267 | 6.1 | 10.4 | 0.00 | 0.00 | 0.00 | 43 | 1007.5 |
| 20260509195002 | 74 | 263 | 7.0 | 10.4 | 0.00 | 0.00 | 0.00 | 43 | 1007.6 |
| 20260509194506 | 74 | 277 | 4.3 | 9.6 | 0.00 | 0.00 | 0.00 | 45 | 1007.7 |
| 20260509194002 | 74 | 169 | 6.1 | 10.4 | 0.00 | 0.00 | 0.00 | 46 | 1007.8 |
| 20260509193504 | 73 | 188 | 4.3 | 10.4 | 0.00 | 0.00 | 0.00 | 46 | 1007.9 |
| 20260509193006 | 73 | 148 | 5.2 | 7.8 | 0.00 | 0.00 | 0.00 | 49 | 1008.0 |
| 20260509192503 | 71 | 170 | 3.5 | 9.6 | 0.00 | 0.00 | 0.00 | 49 | 1008.0 |
| 20260509192003 | 71 | 243 | 4.3 | 9.6 | 0.00 | 0.00 | 0.00 | 48 | 1008.1 |
| 20260509191505 | 71 | 269 | 4.3 | 8.7 | 0.00 | 0.00 | 0.00 | 51 | 1008.2 |
| 20260509191006 | 71 | 260 | 2.6 | 9.6 | 0.00 | 0.00 | 0.00 | 50 | 1008.3 |
| 20260509190506 | 71 | 264 | 4.3 | 10.4 | 0.00 | 0.00 | 0.00 | 48 | 1008.4 |
| 20260509190017 | 71 | 154 | 4.3 | 10.4 | 0.00 | 0.00 | 0.00 | 49 | 1008.5 |
| 20260509185505 | 71 | 191 | 3.5 | 9.6 | 0.00 | 0.00 | 0.00 | 48 | 1008.5 |
| 20260509185003 | 72 | 217 | 3.5 | 12.2 | 0.00 | 0.00 | 0.00 | 48 | 1008.6 |
| 20260509184521 | 72 | 237 | 6.1 | 12.2 | 0.00 | 0.00 | 0.00 | 48 | 1008.7 |
| 20260509184006 | 71 | 151 | 3.5 | 9.6 | 0.00 | 0.00 | 0.00 | 49 | 1008.7 |
| 20260509183504 | 71 | 250 | 4.3 | 9.6 | 0.00 | 0.00 | 0.00 | 49 | 1008.8 |
| 20260509183005 | 71 | 167 | 2.6 | 6.1 | 0.00 | 0.00 | 0.00 | 49 | 1008.8 |
| 20260509182504 | 71 | 146 | 3.5 | 6.1 | 0.00 | 0.00 | 0.00 | 51 | 1008.8 |
| 20260509182004 | 71 | 179 | 3.5 | 7.0 | 0.00 | 0.00 | 0.00 | 49 | 1008.9 |
| 20260509181506 | 71 | 226 | 3.5 | 7.0 | 0.00 | 0.00 | 0.00 | 49 | 1009.0 |
| 20260509181006 | 71 | 238 | 3.5 | 7.0 | 0.00 | 0.00 | 0.00 | 49 | 1009.1 |
| 20260509180505 | 71 | 264 | 3.5 | 10.4 | 0.00 | 0.00 | 0.00 | 52 | 1009.2 |
| 20260509180016 | 71 | 289 | 4.3 | 10.4 | 0.00 | 0.00 | 0.00 | 52 | 1009.3 |
| 20260509175507 | 71 | 270 | 4.3 | 8.7 | 0.00 | 0.00 | 0.00 | 51 | 1009.4 |
| 20260509175007 | 72 | 243 | 3.5 | 7.8 | 0.00 | 0.00 | 0.00 | 51 | 1009.5 |
| 20260509174512 | 71 | 288 | 4.3 | 7.0 | 0.00 | 0.00 | 0.00 | 56 | 1009.6 |
| 20260509174003 | 71 | 210 | 4.3 | 7.8 | 0.00 | 0.00 | 0.00 | 53 | 1009.5 |
| 20260509173506 | 70 | 264 | 4.3 | 7.8 | 0.00 | 0.00 | 0.00 | 53 | 1009.6 |
| 20260509173015 | 70 | 239 | 3.5 | 7.8 | 0.00 | 0.00 | 0.00 | 54 | 1009.8 |
| 20260509172504 | 69 | 264 | 3.5 | 7.0 | 0.00 | 0.00 | 0.00 | 55 | 1009.9 |
| 20260509172004 | 69 | 294 | 3.5 | 7.0 | 0.00 | 0.00 | 0.00 | 54 | 1010.0 |
| 20260509171505 | 69 | 263 | 2.6 | 7.0 | 0.00 | 0.00 | 0.00 | 55 | 1010.0 |
| 20260509171006 | 68 | 231 | 2.6 | 8.7 | 0.00 | 0.00 | 0.00 | 56 | 1010.1 |
| 20260509170504 | 68 | 268 | 5.2 | 8.7 | 0.00 | 0.00 | 0.00 | 55 | 1010.1 |
| 20260509170006 | 69 | 263 | 4.3 | 7.0 | 0.00 | 0.00 | 0.00 | 55 | 1010.1 |
| 20260509165502 | 68 | 266 | 2.6 | 7.8 | 0.00 | 0.00 | 0.00 | 55 | 1010.0 |
| 20260509165003 | 68 | 283 | 3.5 | 7.8 | 0.00 | 0.00 | 0.00 | 57 | 1010.0 |
| 20260509164514 | 67 | 250 | 1.7 | 5.2 | 0.00 | 0.00 | 0.00 | 58 | 1010.0 |
| 20260509164003 | 67 | 245 | 1.7 | 5.2 | 0.00 | 0.00 | 0.00 | 58 | 1010.1 |
| 20260509163503 | 67 | 259 | 2.6 | 7.8 | 0.00 | 0.00 | 0.00 | 57 | 1010.1 |
| 20260509163019 | 67 | 234 | 3.5 | 8.7 | 0.00 | 0.00 | 0.00 | 57 | 1010.2 |
| 20260509162507 | 67 | 290 | 2.6 | 8.7 | 0.00 | 0.00 | 0.00 | 57 | 1010.2 |
| 20260509162006 | 67 | 268 | 3.5 | 6.1 | 0.00 | 0.00 | 0.00 | 57 | 1010.1 |
| 20260509161518 | 67 | 266 | 2.6 | 6.1 | 0.00 | 0.00 | 0.00 | 58 | 1010.1 |
| 20260509161007 | 67 | 143 | 2.6 | 6.1 | 0.00 | 0.00 | 0.00 | 57 | 1010.0 |
| 20260509160504 | 66 | 262 | 2.6 | 6.1 | 0.00 | 0.00 | 0.00 | 58 | 1010.1 |
| 20260509160006 | 66 | 163 | 3.5 | 6.1 | 0.00 | 0.00 | 0.00 | 58 | 1010.1 |
| 20260509155503 | 66 | 285 | 2.6 | 5.2 | 0.00 | 0.00 | 0.00 | 57 | 1010.1 |
| 20260509155006 | 66 | 274 | 1.7 | 5.2 | 0.00 | 0.00 | 0.00 | 59 | 1010.1 |
| 20260509154507 | 66 | 263 | 1.7 | 4.3 | 0.00 | 0.00 | 0.00 | 58 | 1010.2 |
| 20260509154006 | 65 | 229 | 0.9 | 4.3 | 0.00 | 0.00 | 0.00 | 57 | 1010.3 |
| 20260509153506 | 65 | 257 | 1.7 | 5.2 | 0.00 | 0.00 | 0.00 | 58 | 1010.3 |
| 20260509153020 | 65 | 254 | 2.6 | 5.2 | 0.00 | 0.00 | 0.00 | 58 | 1010.3 |
| 20260509152507 | 64 | 244 | 1.7 | 5.2 | 0.00 | 0.00 | 0.00 | 58 | 1010.3 |
| 20260509152007 | 64 | 246 | 1.7 | 5.2 | 0.00 | 0.00 | 0.00 | 57 | 1010.4 |
| 20260509151516 | 64 | 279 | 1.7 | 5.2 | 0.00 | 0.00 | 0.00 | 60 | 1010.4 |
| 20260509151006 | 64 | 242 | 1.7 | 2.6 | 0.00 | 0.00 | 0.00 | 57 | 1010.4 |
| 20260509150507 | 63 | 273 | 0.9 | 3.5 | 0.00 | 0.00 | 0.00 | 58 | 1010.6 |
| 20260509150016 | 63 | 259 | 1.7 | 3.5 | 0.00 | 0.00 | 0.00 | 58 | 1010.5 |
| 20260509145504 | 64 | 243 | 1.7 | 2.6 | 0.00 | 0.00 | 0.00 | 58 | 1010.5 |
| 20260509145009 | 63 | 233 | 0.0 | 2.6 | 0.00 | 0.00 | 0.00 | 59 | 1010.5 |
| 20260509144508 | 63 | 217 | 0.0 | 3.5 | 0.00 | 0.00 | 0.00 | 59 | 1010.6 |
| 20260509144004 | 63 | 204 | 0.9 | 6.1 | 0.00 | 0.00 | 0.00 | 58 | 1010.6 |
| 20260509143507 | 63 | 251 | 2.6 | 6.1 | 0.00 | 0.00 | 0.00 | 58 | 1010.5 |
| 20260509143033 | 62 | 236 | 1.7 | 4.3 | 0.00 | 0.00 | 0.00 | 60 | 1010.5 |
| 20260509142504 | 61 | 247 | 0.9 | 4.3 | 0.00 | 0.00 | 0.00 | 61 | 1010.4 |
| 20260509142004 | 60 | 274 | 0.9 | 4.3 | 0.00 | 0.00 | 0.00 | 62 | 1010.4 |
| 20260509141523 | 60 | 229 | 1.7 | 3.5 | 0.00 | 0.00 | 0.00 | 61 | 1010.5 |
| 20260509141007 | 60 | 272 | 0.9 | 3.5 | 0.00 | 0.00 | 0.00 | 62 | 1010.6 |
| 20260509140506 | 60 | 226 | 1.7 | 3.5 | 0.00 | 0.00 | 0.00 | 62 | 1010.6 |
| 20260509140016 | 60 | 264 | 1.7 | 5.2 | 0.00 | 0.00 | 0.00 | 61 | 1010.7 |
| 20260509135507 | 60 | 243 | 1.7 | 5.2 | 0.00 | 0.00 | 0.00 | 59 | 1010.7 |
| 20260509135007 | 60 | 235 | 1.7 | 3.5 | 0.00 | 0.00 | 0.00 | 60 | 1010.7 |
| 20260509134521 | 59 | 256 | 0.9 | 3.5 | 0.00 | 0.00 | 0.00 | 61 | 1010.6 |
| 20260509134006 | 59 | 232 | 1.7 | 2.6 | 0.00 | 0.00 | 0.00 | 60 | 1010.7 |
| 20260509133509 | 58 | 251 | 0.0 | 3.5 | 0.00 | 0.00 | 0.00 | 62 | 1010.7 |
| 20260509133019 | 58 | 252 | 0.9 | 3.5 | 0.00 | 0.00 | 0.00 | 61 | 1010.7 |
| 20260509132504 | 58 | 238 | 1.7 | 3.5 | 0.00 | 0.00 | 0.00 | 62 | 1010.8 |
| 20260509132004 | 58 | 264 | 0.9 | 3.5 | 0.00 | 0.00 | 0.00 | 61 | 1010.9 |
| 20260509131512 | 58 | 231 | 0.9 | 3.5 | 0.00 | 0.00 | 0.00 | 64 | 1011.0 |
| 20260509131005 | 58 | 264 | 0.9 | 3.5 | 0.00 | 0.00 | 0.00 | 63 | 1010.9 |
| 20260509130511 | 57 | 257 | 1.7 | 5.2 | 0.00 | 0.00 | 0.00 | 61 | 1010.9 |
| 20260509130019 | 57 | 288 | 2.6 | 5.2 | 0.00 | 0.00 | 0.00 | 63 | 1010.9 |
| 20260509125509 | 57 | 238 | 1.7 | 6.1 | 0.00 | 0.00 | 0.00 | 63 | 1011.0 |
| 20260509125008 | 58 | 277 | 2.6 | 6.1 | 0.00 | 0.00 | 0.00 | 62 | 1011.0 |
| 20260509124519 | 58 | 259 | 2.6 | 4.3 | 0.00 | 0.00 | 0.00 | 62 | 1011.0 |
| 20260509124007 | 58 | 273 | 2.6 | 5.2 | 0.00 | 0.00 | 0.00 | 62 | 1011.0 |
| 20260509123506 | 58 | 275 | 2.6 | 5.2 | 0.00 | 0.00 | 0.00 | 62 | 1011.1 |
| 20260509123019 | 57 | 264 | 2.6 | 5.2 | 0.00 | 0.00 | 0.00 | 62 | 1011.0 |
| 20260509122510 | 57 | 253 | 1.7 | 4.3 | 0.00 | 0.00 | 0.00 | 63 | 1010.9 |
| 20260509122012 | 57 | 269 | 1.7 | 4.3 | 0.00 | 0.00 | 0.00 | 63 | 1011.0 |
| 20260509121533 | 56 | 259 | 1.7 | 4.3 | 0.00 | 0.00 | 0.00 | 65 | 1011.1 |
| 20260509121004 | 56 | 262 | 2.6 | 4.3 | 0.00 | 0.00 | 0.00 | 66 | 1011.2 |
| 20260509120506 | 56 | 264 | 1.7 | 3.5 | 0.00 | 0.00 | 0.00 | 68 | 1011.2 |
| 20260509120016 | 55 | 259 | 1.7 | 4.3 | 0.00 | 0.00 | 0.00 | 68 | 1011.2 |
| 20260509115505 | 55 | 269 | 1.7 | 4.3 | 0.00 | 0.00 | 0.00 | 70 | 1011.1 |
| 20260509115009 | 55 | 259 | 1.7 | 3.5 | 0.00 | 0.00 | 0.00 | 69 | 1011.2 |
| 20260509114540 | 54 | 272 | 0.9 | 3.5 | 0.00 | 0.00 | 0.00 | 69 | 1011.1 |
| 20260509114007 | 53 | 274 | 0.9 | 2.6 | 0.00 | 0.00 | 0.00 | 71 | 1011.1 |
| 20260509113509 | 53 | 233 | 0.0 | 0.9 | 0.00 | 0.00 | 0.00 | 75 | 1011.1 |
| 20260509113023 | 53 | 233 | 0.0 | 0.0 | 0.00 | 0.00 | 0.00 | 75 | 1011.1 |
| 20260509112503 | 52 | 232 | 0.0 | 0.0 | 0.00 | 0.00 | 0.00 | 76 | 1011.2 |
| 20260509112007 | 52 | 233 | 0.0 | 0.0 | 0.00 | 0.00 | 0.00 | 79 | 1011.1 |
| 20260509111506 | 52 | 232 | 0.0 | 0.0 | 0.00 | 0.00 | 0.00 | 79 | 1011.0 |
| 20260509111005 | 52 | 232 | 0.0 | 0.0 | 0.00 | 0.00 | 0.00 | 77 | 1011.0 |
| 20260509110506 | 52 | 233 | 0.0 | 0.0 | 0.00 | 0.00 | 0.00 | 78 | 1010.9 |
| 20260509110014 | 52 | 232 | 0.0 | 0.0 | 0.00 | 0.00 | 0.00 | 78 | 1010.9 |
| 20260509105504 | 51 | 233 | 0.0 | 0.0 | 0.00 | 0.00 | 0.00 | 77 | 1010.9 |
| 20260509105008 | 51 | 233 | 0.0 | 0.0 | 0.00 | 0.00 | 0.00 | 77 | 1010.8 |
| 20260509104520 | 51 | 233 | 0.0 | 0.0 | 0.00 | 0.00 | 0.00 | 77 | 1010.8 |
| 20260509104006 | 51 | 232 | 0.0 | 0.0 | 0.00 | 0.00 | 0.00 | 77 | 1010.9 |
| 20260509103507 | 51 | 233 | 0.0 | 0.0 | 0.00 | 0.00 | 0.00 | 75 | 1010.9 |
| 20260509103021 | 51 | 233 | 0.0 | 0.0 | 0.00 | 0.00 | 0.00 | 74 | 1011.0 |
| 20260509102507 | 50 | 233 | 0.0 | 0.0 | 0.00 | 0.00 | 0.00 | 74 | 1011.0 |
| 20260509102010 | 50 | 232 | 0.0 | 0.0 | 0.00 | 0.00 | 0.00 | 75 | 1011.0 |
| 20260509101524 | 50 | 232 | 0.0 | 0.0 | 0.00 | 0.00 | 0.00 | 76 | 1011.0 |
| 20260509101003 | 50 | 232 | 0.0 | 0.0 | 0.00 | 0.00 | 0.00 | 76 | 1010.8 |
| 20260509100503 | 50 | 232 | 0.0 | 0.0 | 0.00 | 0.00 | 0.00 | 77 | 1010.9 |
| 20260509100008 | 51 | 232 | 0.0 | 0.0 | 0.00 | 0.00 | 0.00 | 77 | 1010.8 |
| 20260509095507 | 51 | 235 | 0.0 | 0.9 | 0.00 | 0.00 | 0.00 | 76 | 1010.8 |
| 20260509095005 | 50 | 235 | 0.0 | 1.7 | 0.00 | 0.00 | 0.00 | 76 | 1010.8 |
| 20260509094512 | 50 | 236 | 0.0 | 1.7 | 0.00 | 0.00 | 0.00 | 77 | 1010.7 |
| 20260509094003 | 50 | 235 | 0.0 | 1.7 | 0.00 | 0.00 | 0.00 | 76 | 1010.7 |
| 20260509093504 | 50 | 235 | 0.0 | 1.7 | 0.00 | 0.00 | 0.00 | 77 | 1010.8 |
| 20260509093018 | 50 | 234 | 0.0 | 1.7 | 0.00 | 0.00 | 0.00 | 77 | 1010.7 |
| 20260509092505 | 50 | 260 | 0.0 | 2.6 | 0.00 | 0.00 | 0.00 | 77 | 1010.8 |
| 20260509092007 | 50 | 270 | 0.0 | 2.6 | 0.00 | 0.00 | 0.00 | 76 | 1010.8 |
| 20260509091521 | 50 | 269 | 0.0 | 1.7 | 0.00 | 0.00 | 0.00 | 77 | 1011.0 |
| 20260509091006 | 50 | 263 | 0.0 | 1.7 | 0.00 | 0.00 | 0.00 | 76 | 1011.0 |
| 20260509090511 | 50 | 269 | 0.9 | 1.7 | 0.00 | 0.00 | 0.00 | 75 | 1011.0 |
| 20260509090050 | 50 | 263 | 0.0 | 1.7 | 0.00 | 0.00 | 0.00 | 75 | 1011.1 |
| 20260509085506 | 50 | 276 | 0.9 | 1.7 | 0.00 | 0.00 | 0.00 | 74 | 1011.0 |
| 20260509085003 | 50 | 259 | 0.0 | 1.7 | 0.00 | 0.00 | 0.00 | 74 | 1011.1 |
| 20260509084510 | 50 | 264 | 0.9 | 1.7 | 0.00 | 0.00 | 0.00 | 73 | 1011.2 |
| 20260509084007 | 51 | 264 | 0.0 | 0.9 | 0.00 | 0.00 | 0.00 | 73 | 1011.1 |
| 20260509083503 | 50 | 243 | 0.0 | 0.9 | 0.00 | 0.00 | 0.00 | 72 | 1011.2 |
| 20260509083038 | 50 | 243 | 0.0 | 0.0 | 0.00 | 0.00 | 0.00 | 73 | 1011.3 |
| 20260509082506 | 51 | 241 | 0.0 | 0.0 | 0.00 | 0.00 | 0.00 | 73 | 1011.2 |
| 20260509082009 | 51 | 241 | 0.0 | 0.0 | 0.00 | 0.00 | 0.00 | 72 | 1011.2 |
| 20260509081527 | 51 | 241 | 0.0 | 0.0 | 0.00 | 0.00 | 0.00 | 72 | 1011.3 |
| 20260509081014 | 51 | 243 | 0.0 | 0.9 | 0.00 | 0.00 | 0.00 | 70 | 1011.2 |
| 20260509080506 | 51 | 243 | 0.0 | 0.9 | 0.00 | 0.00 | 0.00 | 71 | 1011.2 |
| 20260509080024 | 51 | 269 | 0.0 | 0.9 | 0.00 | 0.00 | 0.00 | 69 | 1011.3 |
| 20260509075509 | 51 | 269 | 0.0 | 0.9 | 0.00 | 0.00 | 0.00 | 68 | 1011.3 |
| 20260509075008 | 51 | 242 | 0.0 | 0.0 | 0.00 | 0.00 | 0.00 | 68 | 1011.3 |
| 20260509074534 | 51 | 144 | 0.0 | 0.0 | 0.00 | 0.00 | 0.00 | 68 | 1011.3 |
| 20260509074009 | 52 | 144 | 0.0 | 0.0 | 0.00 | 0.00 | 0.00 | 68 | 1011.3 |
| 20260509073508 | 52 | 144 | 0.0 | 0.0 | 0.00 | 0.00 | 0.00 | 67 | 1011.4 |
| 20260509073018 | 52 | 144 | 0.0 | 0.0 | 0.00 | 0.00 | 0.00 | 65 | 1011.4 |
| 20260509072511 | 52 | 144 | 0.0 | 0.0 | 0.00 | 0.00 | 0.00 | 63 | 1011.5 |
| 20260509072004 | 53 | 144 | 0.0 | 0.0 | 0.00 | 0.00 | 0.00 | 62 | 1011.4 |
| 20260509071522 | 53 | 144 | 0.0 | 0.0 | 0.00 | 0.00 | 0.00 | 65 | 1011.5 |
| 20260509071007 | 53 | 208 | 0.0 | 0.0 | 0.00 | 0.00 | 0.00 | 61 | 1011.4 |
| 20260509070507 | 53 | 208 | 0.0 | 0.9 | 0.00 | 0.00 | 0.00 | 61 | 1011.5 |
| 20260509070032 | 53 | 209 | 0.0 | 1.7 | 0.00 | 0.00 | 0.00 | 59 | 1011.6 |
| 20260509065513 | 52 | 209 | 0.0 | 1.7 | 0.00 | 0.00 | 0.00 | 66 | 1011.9 |
| 20260509065010 | 53 | 206 | 0.0 | 1.7 | 0.00 | 0.00 | 0.00 | 64 | 1012.0 |